| time (UTC) | temp C | wind direction | speed KPH | gust KPH | rain 1hr cm | rain 24hr cm | rain mn cm | humidity % | barometer mb |
| 20260906123159 | 23 | 319 | 0.0 | 0.0 | 0.00 | 0.18 | 0.00 | 98 | 1015.0 |
| 20260906120759 | 21 | 319 | 0.0 | 0.0 | 0.00 | 0.18 | 0.00 | 98 | 1014.9 |
| 20260906120004 | 21 | 319 | 0.0 | 0.0 | 0.00 | 0.18 | 0.00 | 98 | 1014.7 |
| 20260906115200 | 21 | 319 | 0.0 | 0.0 | 0.00 | 0.18 | 0.00 | 98 | 1014.8 |
| 20260906114400 | 20 | 319 | 0.0 | 0.0 | 0.00 | 0.18 | 0.00 | 98 | 1014.8 |
| 20260906113600 | 20 | 319 | 0.0 | 0.0 | 0.00 | 0.18 | 0.00 | 98 | 1014.8 |
| 20260906112800 | 20 | 319 | 0.0 | 0.0 | 0.00 | 0.18 | 0.00 | 98 | 1014.9 |
| 20260906112001 | 20 | 319 | 0.0 | 0.0 | 0.00 | 0.18 | 0.00 | 98 | 1014.7 |
| 20260906111200 | 20 | 319 | 0.0 | 0.0 | 0.00 | 0.18 | 0.00 | 98 | 1014.7 |
| 20260906110359 | 20 | 319 | 0.0 | 0.0 | 0.00 | 0.18 | 0.00 | 98 | 1014.6 |
| 20260906105600 | 20 | 319 | 0.0 | 0.0 | 0.00 | 0.18 | 0.00 | 98 | 1014.7 |
| 20260906104001 | 20 | 319 | 0.0 | 0.0 | 0.00 | 0.18 | 0.00 | 98 | 1014.6 |
| 20260906103201 | 20 | 319 | 0.0 | 0.0 | 0.00 | 0.18 | 0.00 | 98 | 1014.6 |
| 20260906102401 | 20 | 319 | 0.0 | 0.0 | 0.00 | 0.18 | 0.00 | 98 | 1014.6 |
| 20260906101600 | 20 | 319 | 0.0 | 0.0 | 0.00 | 0.18 | 0.00 | 98 | 1014.6 |
| 20260906100800 | 20 | 319 | 0.0 | 0.0 | 0.00 | 0.18 | 0.00 | 98 | 1014.4 |
| 20260906100004 | 20 | 319 | 0.0 | 0.0 | 0.00 | 0.18 | 0.00 | 98 | 1014.4 |
| 20260906095201 | 20 | 319 | 0.0 | 0.0 | 0.00 | 0.18 | 0.00 | 97 | 1014.4 |
| 20260906092759 | 21 | 319 | 0.0 | 0.0 | 0.00 | 0.18 | 0.00 | 97 | 1014.2 |
| 20260906092001 | 21 | 319 | 0.0 | 0.0 | 0.00 | 0.18 | 0.00 | 97 | 1014.2 |
| 20260906091200 | 21 | 319 | 0.0 | 0.0 | 0.00 | 0.18 | 0.00 | 97 | 1014.2 |
| 20260906090400 | 21 | 319 | 0.0 | 0.0 | 0.00 | 0.18 | 0.00 | 97 | 1014.3 |
| 20260906085559 | 20 | 319 | 0.0 | 0.0 | 0.00 | 0.18 | 0.00 | 97 | 1014.4 |
| 20260906084759 | 21 | 319 | 0.0 | 0.0 | 0.00 | 0.18 | 0.00 | 97 | 1014.4 |
| 20260906083959 | 21 | 319 | 0.0 | 0.0 | 0.00 | 0.18 | 0.00 | 97 | 1014.4 |
| 20260906083159 | 21 | 319 | 0.0 | 0.0 | 0.00 | 0.18 | 0.00 | 97 | 1014.2 |
| 20260906082359 | 21 | 319 | 0.0 | 0.0 | 0.00 | 0.18 | 0.00 | 97 | 1014.2 |
| 20260906080759 | 21 | 319 | 0.0 | 0.0 | 0.00 | 0.18 | 0.00 | 97 | 1014.0 |
| 20260906080000 | 21 | 319 | 0.0 | 0.0 | 0.00 | 0.18 | 0.00 | 97 | 1014.0 |
| 20260906075159 | 21 | 319 | 0.0 | 0.0 | 0.00 | 0.18 | 0.00 | 97 | 1014.1 |
| 20260906073559 | 21 | 320 | 0.0 | 0.0 | 0.00 | 0.18 | 0.00 | 97 | 1014.3 |
| 20260906072000 | 21 | 320 | 0.0 | 0.0 | 0.00 | 0.18 | 0.00 | 97 | 1014.3 |
| 20260906071159 | 21 | 320 | 0.0 | 0.0 | 0.00 | 0.18 | 0.00 | 97 | 1014.3 |
| 20260906070359 | 21 | 320 | 0.0 | 0.0 | 0.00 | 0.18 | 0.00 | 97 | 1014.3 |
| 20260906065559 | 21 | 320 | 0.0 | 0.0 | 0.00 | 0.18 | 0.00 | 97 | 1014.2 |
| 20260906064758 | 21 | 321 | 0.0 | 0.0 | 0.00 | 0.18 | 0.00 | 97 | 1014.2 |
| 20260906064001 | 21 | 320 | 0.0 | 0.0 | 0.00 | 0.18 | 0.00 | 97 | 1014.3 |
| 20260906063158 | 21 | 321 | 0.0 | 0.0 | 0.00 | 0.18 | 0.00 | 96 | 1014.5 |
| 20260906062359 | 21 | 320 | 0.0 | 0.0 | 0.00 | 0.18 | 0.00 | 97 | 1014.4 |
| 20260906061559 | 21 | 320 | 0.0 | 0.0 | 0.00 | 0.18 | 0.00 | 96 | 1014.4 |
| 20260906060004 | 21 | 320 | 0.0 | 0.0 | 0.00 | 0.18 | 0.00 | 96 | 1014.5 |
| 20260906055200 | 21 | 320 | 0.0 | 0.0 | 0.00 | 0.18 | 0.00 | 96 | 1014.3 |
| 20260906052800 | 21 | 320 | 0.0 | 0.0 | 0.00 | 0.18 | 0.00 | 96 | 1014.7 |
| 20260906052001 | 22 | 320 | 0.0 | 0.0 | 0.00 | 0.18 | 0.00 | 96 | 1014.7 |
| 20260906051200 | 22 | 320 | 0.0 | 0.0 | 0.00 | 0.18 | 0.00 | 96 | 1014.7 |
| 20260906050400 | 22 | 320 | 0.0 | 0.0 | 0.00 | 0.18 | 0.00 | 96 | 1014.6 |
| 20260906045601 | 22 | 320 | 0.0 | 0.0 | 0.00 | 0.18 | 0.00 | 96 | 1014.7 |
| 20260906044000 | 22 | 320 | 0.0 | 0.0 | 0.00 | 0.18 | 0.00 | 96 | 1014.6 |
| 20260906043201 | 22 | 320 | 0.0 | 0.0 | 0.00 | 0.18 | 0.00 | 96 | 1014.7 |
| 20260906042401 | 22 | 320 | 0.0 | 0.0 | 0.00 | 0.18 | 0.00 | 95 | 1014.6 |
| 20260906041601 | 22 | 320 | 0.0 | 0.0 | 0.00 | 0.18 | 0.00 | 95 | 1014.7 |
| 20260906040007 | 22 | 320 | 0.0 | 0.0 | 0.00 | 0.18 | 0.00 | 95 | 1014.5 |
| 20260906035202 | 22 | 320 | 0.0 | 0.0 | 0.00 | 0.18 | 0.18 | 95 | 1014.6 |
| 20260906034402 | 22 | 320 | 0.0 | 0.0 | 0.00 | 0.18 | 0.18 | 94 | 1014.5 |
| 20260906032802 | 22 | 321 | 0.0 | 0.0 | 0.18 | 0.18 | 0.18 | 94 | 1014.7 |
| 20260906031202 | 22 | 321 | 0.0 | 0.0 | 0.18 | 0.18 | 0.18 | 93 | 1015.0 |
| 20260906024802 | 22 | 321 | 0.0 | 1.6 | 0.18 | 0.18 | 0.18 | 89 | 1015.7 |
| 20260906021602 | 25 | 244 | 0.0 | 4.8 | 0.00 | 0.00 | 0.00 | 75 | 1015.8 |
| 20260906020801 | 25 | 252 | 0.0 | 4.8 | 0.00 | 0.00 | 0.00 | 74 | 1015.8 |
| 20260906020005 | 25 | 37 | 0.0 | 8.0 | 0.00 | 0.00 | 0.00 | 75 | 1015.7 |
| 20260906014401 | 25 | 113 | 0.0 | 1.6 | 0.00 | 0.00 | 0.00 | 77 | 1015.6 |
| 20260906013600 | 25 | 113 | 0.0 | 1.6 | 0.00 | 0.00 | 0.00 | 77 | 1015.3 |
| 20260906012800 | 25 | 114 | 0.0 | 1.6 | 0.00 | 0.00 | 0.00 | 77 | 1015.0 |
| 20260906012001 | 25 | 114 | 0.0 | 1.6 | 0.00 | 0.00 | 0.00 | 76 | 1014.9 |
| 20260906011200 | 25 | 114 | 0.0 | 3.2 | 0.00 | 0.00 | 0.00 | 76 | 1015.2 |
| 20260906010401 | 25 | 95 | 0.0 | 1.6 | 0.00 | 0.00 | 0.00 | 76 | 1015.1 |
| 20260906005601 | 25 | 54 | 0.0 | 3.2 | 0.00 | 0.00 | 0.00 | 75 | 1014.8 |
| 20260906003200 | 26 | 232 | 1.6 | 9.7 | 0.00 | 0.00 | 0.00 | 72 | 1013.8 |
| 20260906002400 | 26 | 110 | 1.6 | 6.4 | 0.00 | 0.00 | 0.00 | 71 | 1014.2 |
| 20260906001601 | 26 | 246 | 1.6 | 6.4 | 0.00 | 0.00 | 0.00 | 71 | 1013.8 |
| 20260906000800 | 27 | 87 | 0.0 | 9.7 | 0.00 | 0.00 | 0.00 | 71 | 1014.5 |
| 20260905235201 | 28 | 112 | 6.4 | 19.3 | 0.00 | 0.00 | 0.00 | 65 | 1014.5 |
| 20260905234401 | 30 | 76 | 1.6 | 4.8 | 0.00 | 0.00 | 0.00 | 67 | 1013.7 |
| 20260905233602 | 30 | 184 | 1.6 | 4.8 | 0.00 | 0.00 | 0.00 | 66 | 1013.2 |
| 20260905232802 | 30 | 264 | 1.6 | 8.0 | 0.00 | 0.00 | 0.00 | 65 | 1013.1 |
| 20260905232002 | 30 | 225 | 1.6 | 6.4 | 0.00 | 0.00 | 0.00 | 65 | 1013.3 |
| 20260905231201 | 31 | 259 | 1.6 | 6.4 | 0.00 | 0.00 | 0.00 | 63 | 1013.4 |
| 20260905230402 | 31 | 191 | 1.6 | 6.4 | 0.00 | 0.00 | 0.00 | 63 | 1013.4 |
| 20260905225601 | 31 | 226 | 3.2 | 6.4 | 0.00 | 0.00 | 0.00 | 62 | 1013.4 |
| 20260905224800 | 31 | 257 | 1.6 | 8.0 | 0.00 | 0.00 | 0.00 | 62 | 1013.4 |
| 20260905224000 | 32 | 197 | 0.0 | 4.8 | 0.00 | 0.00 | 0.00 | 61 | 1013.4 |
| 20260905223200 | 32 | 296 | 1.6 | 8.0 | 0.00 | 0.00 | 0.00 | 60 | 1013.4 |
| 20260905222401 | 32 | 218 | 1.6 | 11.3 | 0.00 | 0.00 | 0.00 | 59 | 1013.3 |
| 20260905221600 | 33 | 261 | 3.2 | 8.0 | 0.00 | 0.00 | 0.00 | 58 | 1013.2 |
| 20260905220801 | 33 | 163 | 3.2 | 12.9 | 0.00 | 0.00 | 0.00 | 58 | 1013.2 |
| 20260905220001 | 33 | 164 | 1.6 | 11.3 | 0.00 | 0.00 | 0.00 | 58 | 1013.1 |
| 20260905215201 | 33 | 274 | 3.2 | 8.0 | 0.00 | 0.00 | 0.00 | 57 | 1012.9 |
| 20260905214400 | 33 | 230 | 3.2 | 11.3 | 0.00 | 0.00 | 0.00 | 56 | 1012.9 |
| 20260905213600 | 34 | 219 | 4.8 | 11.3 | 0.00 | 0.00 | 0.00 | 57 | 1012.9 |
| 20260905212800 | 34 | 294 | 3.2 | 11.3 | 0.00 | 0.00 | 0.00 | 58 | 1013.1 |
| 20260905211201 | 33 | 243 | 3.2 | 9.7 | 0.00 | 0.00 | 0.00 | 57 | 1013.0 |
| 20260905210401 | 35 | 244 | 4.8 | 12.9 | 0.00 | 0.00 | 0.00 | 54 | 1013.0 |
| 20260905205600 | 36 | 250 | 3.2 | 9.7 | 0.00 | 0.00 | 0.00 | 52 | 1012.9 |
| 20260905204800 | 37 | 236 | 3.2 | 9.7 | 0.00 | 0.00 | 0.00 | 43 | 1013.0 |
| 20260905203200 | 37 | 256 | 1.6 | 3.2 | 0.00 | 0.00 | 0.00 | 40 | 1013.0 |
| 20260905202400 | 37 | 113 | 0.0 | 4.8 | 0.00 | 0.00 | 0.00 | 41 | 1013.2 |
| 20260905201600 | 37 | 264 | 1.6 | 4.8 | 0.00 | 0.00 | 0.00 | 43 | 1013.3 |
| 20260905200800 | 36 | 283 | 1.6 | 1.6 | 0.00 | 0.00 | 0.00 | 43 | 1013.5 |
| 20260905200004 | 36 | 272 | 0.0 | 1.6 | 0.00 | 0.00 | 0.00 | 46 | 1013.7 |
| 20260905195159 | 36 | 243 | 0.0 | 1.6 | 0.00 | 0.00 | 0.00 | 43 | 1013.9 |
| 20260905193600 | 37 | 25 | 1.6 | 8.0 | 0.00 | 0.00 | 0.00 | 43 | 1014.0 |
| 20260905192802 | 37 | 33 | 1.6 | 8.0 | 0.00 | 0.00 | 0.00 | 43 | 1014.1 |
| 20260905191201 | 37 | 86 | 0.0 | 3.2 | 0.00 | 0.00 | 0.00 | 41 | 1014.2 |
| 20260905190401 | 36 | 23 | 1.6 | 6.4 | 0.00 | 0.00 | 0.00 | 44 | 1014.3 |
| 20260905185601 | 36 | 310 | 1.6 | 4.8 | 0.00 | 0.00 | 0.00 | 45 | 1014.4 |
| 20260905184802 | 36 | 99 | 1.6 | 6.4 | 0.00 | 0.00 | 0.00 | 43 | 1014.4 |
| 20260905184001 | 36 | 240 | 1.6 | 3.2 | 0.00 | 0.00 | 0.00 | 43 | 1014.5 |
| 20260905182401 | 35 | 121 | 0.0 | 1.6 | 0.00 | 0.00 | 0.00 | 48 | 1014.9 |
| 20260905181601 | 35 | 241 | 1.6 | 3.2 | 0.00 | 0.00 | 0.00 | 47 | 1015.0 |
| 20260905180800 | 35 | 13 | 0.0 | 3.2 | 0.00 | 0.00 | 0.00 | 46 | 1014.9 |
| 20260905180002 | 35 | 92 | 1.6 | 6.4 | 0.00 | 0.00 | 0.00 | 45 | 1015.0 |
| 20260905175159 | 35 | 30 | 3.2 | 6.4 | 0.00 | 0.00 | 0.00 | 45 | 1015.2 |
| 20260905174359 | 34 | 242 | 1.6 | 6.4 | 0.00 | 0.00 | 0.00 | 48 | 1015.4 |
| 20260905171959 | 34 | 314 | 1.6 | 3.2 | 0.00 | 0.00 | 0.00 | 54 | 1015.6 |
| 20260905171159 | 33 | 56 | 0.0 | 3.2 | 0.00 | 0.00 | 0.00 | 51 | 1015.7 |
| 20260905170359 | 34 | 266 | 1.6 | 3.2 | 0.00 | 0.00 | 0.00 | 52 | 1015.8 |
| 20260905165600 | 33 | 273 | 1.6 | 3.2 | 0.00 | 0.00 | 0.00 | 54 | 1015.9 |
| 20260905164001 | 33 | 235 | 0.0 | 3.2 | 0.00 | 0.00 | 0.00 | 54 | 1016.2 |
| 20260905163200 | 33 | 120 | 1.6 | 4.8 | 0.00 | 0.00 | 0.00 | 53 | 1016.4 |
| 20260905162401 | 33 | 49 | 1.6 | 4.8 | 0.00 | 0.00 | 0.00 | 55 | 1016.4 |
| 20260905161601 | 33 | 108 | 1.6 | 4.8 | 0.00 | 0.00 | 0.00 | 53 | 1016.4 |
| 20260905160004 | 32 | 347 | 1.6 | 6.4 | 0.00 | 0.00 | 0.00 | 53 | 1016.3 |
| 20260905154401 | 32 | 123 | 1.6 | 4.8 | 0.00 | 0.00 | 0.00 | 56 | 1016.5 |
| 20260905153602 | 32 | 281 | 1.6 | 4.8 | 0.00 | 0.00 | 0.00 | 57 | 1016.5 |
| 20260905152801 | 32 | 113 | 0.0 | 1.6 | 0.00 | 0.00 | 0.00 | 57 | 1016.5 |
| 20260905152000 | 31 | 89 | 1.6 | 6.4 | 0.00 | 0.00 | 0.00 | 59 | 1016.5 |
| 20260905151159 | 31 | 104 | 1.6 | 6.4 | 0.00 | 0.00 | 0.00 | 59 | 1016.6 |
| 20260905150400 | 31 | 176 | 0.0 | 3.2 | 0.00 | 0.00 | 0.00 | 60 | 1016.7 |
| 20260905145600 | 31 | 255 | 0.0 | 4.8 | 0.00 | 0.00 | 0.00 | 62 | 1016.7 |
| 20260905144801 | 31 | 110 | 1.6 | 4.8 | 0.00 | 0.00 | 0.00 | 63 | 1016.8 |
| 20260905144001 | 31 | 122 | 0.0 | 3.2 | 0.00 | 0.00 | 0.00 | 63 | 1016.7 |
| 20260905143200 | 30 | 256 | 1.6 | 3.2 | 0.00 | 0.00 | 0.00 | 64 | 1016.7 |
| 20260905142402 | 30 | 240 | 1.6 | 3.2 | 0.00 | 0.00 | 0.00 | 65 | 1016.8 |
| 20260905140801 | 30 | 229 | 0.0 | 1.6 | 0.00 | 0.00 | 0.00 | 65 | 1016.9 |
| 20260905140005 | 29 | 301 | 0.0 | 3.2 | 0.00 | 0.00 | 0.00 | 69 | 1016.9 |
| 20260905133601 | 28 | 75 | 0.0 | 3.2 | 0.00 | 0.00 | 0.00 | 72 | 1016.9 |
| 20260905132801 | 28 | 270 | 0.0 | 3.2 | 0.00 | 0.00 | 0.00 | 74 | 1017.1 |
| 20260905131200 | 27 | 246 | 0.0 | 1.6 | 0.00 | 0.00 | 0.00 | 76 | 1017.0 |
| 20260905130401 | 27 | 10 | 0.0 | 1.6 | 0.00 | 0.00 | 0.00 | 78 | 1017.1 |
| 20260905125559 | 26 | 295 | 0.0 | 1.6 | 0.00 | 0.00 | 0.00 | 80 | 1017.1 |
| 20260905124759 | 26 | 224 | 0.0 | 1.6 | 0.00 | 0.00 | 0.00 | 83 | 1017.1 |
| 20260905124000 | 26 | 314 | 0.0 | 1.6 | 0.00 | 0.00 | 0.00 | 82 | 1017.1 |